When you browse on this site, cookies collect data to enhance your experience and personalize the content and advertising you see.
Visit our Privacy Policy to learn more. By continuing to use the site, you agree to this use of cookies and data.
  • In Hungary
  • List of Countries
  • For 7 days
  • Water Temperature
  • Satellite Maps
  • Weather Map
  • News
  • Weather Widgets
  • user-avatar
    Login

    Hourly Weather Guayakil

    Today, 17 December, Monday

    Time Temperature Precipitation Wind Pressure Humidity
    00:00 +28°C° 0.3 mm 2 mps 759 mmHg 77%
    01:00 +27°C° 0.3 mm 2 mps 759 mmHg 79%
    02:00 +27°C° 0.1 mm 1 mps 759 mmHg 79%
    03:00 +27°C° 0.1 mm 1 mps 759 mmHg 80%
    04:00 +27°C° 0.1 mm 1 mps 759 mmHg 81%
    05:00 +27°C° 0.1 mm 1 mps 759 mmHg 80%
    06:00 +27°C° 0.1 mm 1 mps 759 mmHg 80%
    07:00 +27°C° 0.1 mm 1 mps 759 mmHg 80%
    08:00 +29°C° 0 mm 1 mps 759 mmHg 74%
    09:00 +30°C° 0 mm 1 mps 759 mmHg 68%
    10:00 +31°C° 0 mm 1 mps 760 mmHg 62%
    11:00 +34°C° 0 mm 2 mps 759 mmHg 57%
    12:00 +35°C° 0 mm 2 mps 758 mmHg 52%
    13:00 +36°C° 0 mm 2 mps 758 mmHg 47%
    14:00 +36°C° 0.4 mm 3 mps 757 mmHg 49%
    15:00 +36°C° 0.4 mm 3 mps 757 mmHg 50%
    16:00 +35°C° 0.4 mm 3 mps 756 mmHg 51%
    17:00 +34°C° 0.9 mm 3 mps 757 mmHg 56%
    18:00 +33°C° 0.9 mm 3 mps 757 mmHg 62%
    19:00 +30°C° 0.9 mm 3 mps 757 mmHg 67%
    20:00 +29°C° 1.5 mm 3 mps 758 mmHg 71%
    21:00 +29°C° 1.5 mm 3 mps 759 mmHg 75%
    22:00 +28°C° 1.5 mm 2 mps 760 mmHg 78%
    23:00 +27°C° 2.1 mm 2 mps 759 mmHg 81%

    Tomorrow, 18 December, Tuesday

    Time Temperature Precipitation Wind Pressure Humidity
    00:00 +27°C° 2.1 mm 2 mps 759 mmHg 83%
    01:00 +27°C° 2.1 mm 2 mps 759 mmHg 85%
    02:00 +27°C° 1.3 mm 2 mps 759 mmHg 86%
    03:00 +26°C° 1.3 mm 2 mps 759 mmHg 86%
    04:00 +26°C° 1.3 mm 2 mps 758 mmHg 86%
    05:00 +26°C° 0.6 mm 2 mps 759 mmHg 86%
    06:00 +26°C° 0.6 mm 2 mps 759 mmHg 85%
    07:00 +27°C° 0.6 mm 2 mps 759 mmHg 85%
    08:00 +27°C° 0.1 mm 2 mps 759 mmHg 82%
    09:00 +28°C° 0.1 mm 2 mps 760 mmHg 78%
    10:00 +29°C° 0.1 mm 2 mps 760 mmHg 75%
    11:00 +30°C° 0.1 mm 2 mps 759 mmHg 69%
    12:00 +31°C° 0.1 mm 3 mps 759 mmHg 63%
    13:00 +34°C° 0.1 mm 3 mps 758 mmHg 58%
    14:00 +34°C° 0.7 mm 3 mps 757 mmHg 59%
    15:00 +33°C° 0.7 mm 3 mps 757 mmHg 60%
    16:00 +33°C° 0.7 mm 3 mps 756 mmHg 62%
    17:00 +31°C° 0.7 mm 3 mps 757 mmHg 66%
    18:00 +30°C° 0.7 mm 3 mps 757 mmHg 71%
    19:00 +29°C° 0.7 mm 3 mps 758 mmHg 75%
    20:00 +28°C° 0.8 mm 3 mps 759 mmHg 77%
    21:00 +28°C° 0.8 mm 2 mps 759 mmHg 79%
    22:00 +27°C° 0.8 mm 2 mps 760 mmHg 81%
    23:00 +27°C° 0.7 mm 2 mps 760 mmHg 82%

    Day after tomorrow, 19 December, Wednesday

    Time Temperature Precipitation Wind Pressure Humidity
    00:00 +27°C° 0.7 mm 2 mps 760 mmHg 84%
    01:00 +27°C° 0.7 mm 2 mps 759 mmHg 85%
    02:00 +26°C° 0.4 mm 2 mps 759 mmHg 86%
    03:00 +26°C° 0.4 mm 1 mps 758 mmHg 86%
    04:00 +26°C° 0.4 mm 1 mps 758 mmHg 87%
    05:00 +26°C° 0.1 mm 1 mps 758 mmHg 86%
    06:00 +27°C° 0.1 mm 1 mps 758 mmHg 85%
    07:00 +27°C° 0.1 mm 1 mps 759 mmHg 84%
    08:00 +28°C° 0 mm 1 mps 759 mmHg 78%
    09:00 +29°C° 0 mm 2 mps 759 mmHg 72%
    10:00 +30°C° 0 mm 2 mps 759 mmHg 65%
    11:00 +32°C° 0.1 mm 2 mps 759 mmHg 62%
    12:00 +34°C° 0.1 mm 2 mps 758 mmHg 58%
    13:00 +35°C° 0.1 mm 2 mps 757 mmHg 54%
    14:00 +34°C° 0.8 mm 3 mps 757 mmHg 56%
    15:00 +34°C° 0.8 mm 3 mps 756 mmHg 58%
    16:00 +33°C° 0.8 mm 3 mps 756 mmHg 60%
    17:00 +31°C° 1.2 mm 3 mps 756 mmHg 65%
    18:00 +30°C° 1.2 mm 3 mps 757 mmHg 69%
    19:00 +29°C° 1.2 mm 3 mps 757 mmHg 74%
    20:00 +28°C° 1.1 mm 2 mps 758 mmHg 76%
    21:00 +28°C° 1.1 mm 2 mps 759 mmHg 79%
    22:00 +27°C° 1.1 mm 2 mps 759 mmHg 81%
    23:00 +27°C° 1.1 mm 2 mps 759 mmHg 83%

    20 December, Thursday

    Time Temperature Precipitation Wind Pressure Humidity
    00:00 +27°C° 1.1 mm 2 mps 759 mmHg 85%
    01:00 +26°C° 1.1 mm 1 mps 759 mmHg 86%
    02:00 +26°C° 0.5 mm 1 mps 758 mmHg 87%
    03:00 +26°C° 0.5 mm 1 mps 758 mmHg 87%
    04:00 +26°C° 0.5 mm 1 mps 758 mmHg 88%
    05:00 +26°C° 0.2 mm 1 mps 758 mmHg 87%
    06:00 +26°C° 0.2 mm 1 mps 758 mmHg 86%
    07:00 +26°C° 0.2 mm 1 mps 759 mmHg 86%
    08:00 +27°C° 0 mm 1 mps 759 mmHg 81%
    09:00 +29°C° 0 mm 1 mps 759 mmHg 76%
    10:00 +30°C° 0 mm 1 mps 759 mmHg 71%
    11:00 +31°C° 0.2 mm 2 mps 759 mmHg 66%
    12:00 +32°C° 0.2 mm 2 mps 758 mmHg 62%
    13:00 +34°C° 0.2 mm 2 mps 757 mmHg 58%
    14:00 +34°C° 0.7 mm 2 mps 757 mmHg 58%
    15:00 +32°C° 0.7 mm 2 mps 756 mmHg 59%
    16:00 +32°C° 0.7 mm 2 mps 755 mmHg 60%
    17:00 +31°C° 0.7 mm 2 mps 756 mmHg 64%
    18:00 +30°C° 0.7 mm 2 mps 757 mmHg 68%
    19:00 +29°C° 0.7 mm 2 mps 757 mmHg 73%
    20:00 +29°C° 0.7 mm 2 mps 758 mmHg 75%
    21:00 +28°C° 0.7 mm 2 mps 758 mmHg 76%
    22:00 +28°C° 0.7 mm 2 mps 759 mmHg 78%
    23:00 +27°C° 0.8 mm 2 mps 759 mmHg 80%

    21 December, Friday

    Time Temperature Precipitation Wind Pressure Humidity
    00:00 +27°C° 0.8 mm 2 mps 758 mmHg 82%
    01:00 +27°C° 0.8 mm 1 mps 758 mmHg 84%
    02:00 +27°C° 1.3 mm 1 mps 758 mmHg 85%
    03:00 +26°C° 1.3 mm 1 mps 757 mmHg 87%
    04:00 +26°C° 1.3 mm 1 mps 757 mmHg 88%
    05:00 +26°C° 0.9 mm 1 mps 757 mmHg 88%
    06:00 +26°C° 0.9 mm 1 mps 758 mmHg 88%
    07:00 +26°C° 0.9 mm 1 mps 758 mmHg 88%
    08:00 +27°C° 0.2 mm 1 mps 759 mmHg 86%
    09:00 +27°C° 0.2 mm 1 mps 759 mmHg 84%
    10:00 +27°C° 0.2 mm 1 mps 759 mmHg 82%
    11:00 +29°C° 0 mm 1 mps 758 mmHg 76%
    12:00 +30°C° 0 mm 1 mps 758 mmHg 69%
    13:00 +32°C° 0 mm 1 mps 757 mmHg 62%
    14:00 +32°C° 0.5 mm 2 mps 756 mmHg 61%
    15:00 +32°C° 0.5 mm 2 mps 756 mmHg 60%
    16:00 +32°C° 0.5 mm 2 mps 755 mmHg 59%
    17:00 +31°C° 0.6 mm 2 mps 756 mmHg 64%
    18:00 +30°C° 0.6 mm 2 mps 757 mmHg 69%
    19:00 +29°C° 0.6 mm 3 mps 757 mmHg 74%
    20:00 +28°C° 0.5 mm 2 mps 758 mmHg 76%
    21:00 +28°C° 0.5 mm 2 mps 758 mmHg 79%
    22:00 +27°C° 0.5 mm 2 mps 759 mmHg 81%
    23:00 +27°C° 0.6 mm 2 mps 759 mmHg 83%

    22 December, Saturday

    Time Temperature Precipitation Wind Pressure Humidity
    00:00 +27°C° 0.6 mm 1 mps 758 mmHg 84%
    01:00 +26°C° 0.6 mm 1 mps 758 mmHg 86%
    02:00 +26°C° 0.9 mm 1 mps 758 mmHg 86%
    03:00 +26°C° 0.9 mm 1 mps 757 mmHg 87%
    04:00 +26°C° 0.9 mm 1 mps 757 mmHg 88%
    05:00 +26°C° 0.3 mm 1 mps 758 mmHg 88%
    06:00 +24°C° 0.3 mm 0 mps 758 mmHg 88%
    07:00 +24°C° 0.3 mm 0 mps 759 mmHg 88%
    08:00 +25°C° 0.1 mm 0 mps 759 mmHg 85%
    09:00 +27°C° 0.1 mm 1 mps 759 mmHg 83%
    10:00 +28°C° 0.1 mm 1 mps 759 mmHg 80%
    11:00 +29°C° 0 mm 1 mps 758 mmHg 74%
    12:00 +30°C° 0 mm 2 mps 758 mmHg 67%
    13:00 +32°C° 0 mm 2 mps 757 mmHg 61%
    14:00 +32°C° 0.2 mm 2 mps 756 mmHg 59%
    15:00 +34°C° 0.2 mm 2 mps 756 mmHg 57%
    16:00 +34°C° 0.2 mm 2 mps 755 mmHg 56%
    17:00 +32°C° 0.3 mm 2 mps 756 mmHg 61%
    18:00 +30°C° 0.3 mm 2 mps 756 mmHg 67%
    19:00 +29°C° 0.3 mm 2 mps 757 mmHg 73%
    20:00 +29°C° 0.2 mm 2 mps 758 mmHg 75%
    21:00 +28°C° 0.2 mm 2 mps 758 mmHg 77%
    22:00 +28°C° 0.2 mm 2 mps 759 mmHg 80%
    23:00 +27°C° 0.4 mm 2 mps 759 mmHg 81%
    Show more